ヒル彗星

357P/Hill (2018)

English version
Home page
Updated on May 20, 2019

---------------------------------------------------------------------

・ プロフィール

符号 357P/2017 Q1
検出日 2017年8月18日
検出光度 21.8等
検出者 Pan-STARRS 1 telescope (Haleakala)

・ 写真集

・ 軌道要素

Epoch 2018 June 11.0 TT = JDT 2458280.5
T 2018 May 28.98291 TT                                  MPCW
q   2.5265294            (2000.0)            P               Q
n   0.10442511     Peri.    1.52995     +0.69303243     -0.71676409
a   4.4661443      Node    44.60844     +0.66024615     +0.58809055
e   0.4342929      Incl.    6.30892     +0.28944960     +0.37469819
P   9.44
From 257 observations 2008 Sept. 28-2019 Jan. 4, mean residual 0".6.

・ 光度変化

        12.5 + 5 logΔ + 10.0 log r

---------------------------------------------------------------------

軌道要素はM.P.E.C. 2019-J142に掲載されたものです。
光度グラフはComet for Windowsで作成したものです。

---------------------------------------------------------------------

Copyright(C) Seiichi Yoshida (comet@aerith.net). All rights reserved.